Regional Weather Roundup
Issued by NWS

Home | Current Version | Previous Version | Text Only | Print | Product List | Glossary On
Versions: 1 2 3 4 5 6 7 8 9 10 11 12 13 14 15 16 17 18 19 20 21 22 23 24 25 26 27 28 29 30 31 32 33 34 35 36 37 38 39 40 41 42 43 44 45 46 47 48 49 50
000
ASUS43 KDTX 220510
RWRMI
MICHIGAN HOURLY REGIONAL WEATHER ROUNDUP
NATIONAL WEATHER SERVICE DETROIT/PONTIAC MI
100 AM EDT WED MAR 22 2017

NOTE: "FAIR" INDICATES FEW OR NO CLOUDS BELOW 12,000 FEET WITH NO
SIGNIFICANT WEATHER AND/OR OBSTRUCTION TO VISIBILITY.

MIZ047>049-052>055-059>063-066>070-074>076-081>083-220600-
SOUTHEAST LOWER MICHIGAN

CITY           SKY/WX    TMP DP  RH WIND       PRES   REMARKS
ADRIAN         FAIR      28  17  63 N13       30.31R WCI  17
ALMA           FAIR      22  11  62 N13       30.39R WCI  10
ANN ARBOR      FAIR      25  11  55 NW20G25   30.30R WCI  11
BAD AXE        FAIR      22   9  58 N18G24    30.33R WCI   8
CARO           FAIR      23  11  60 N12       30.34R WCI  12
DETROIT CITY   MOCLDY    28  14  55 N13G24    30.29R WCI  17
DETROIT        FAIR      29  13  51 N17G28    30.29R WCI  17
FLINT          FAIR      23   9  55 N18       30.34R WCI   9
GROSSE ILE     FAIR      29  13  52 N17       30.27R WCI  17
HILLSDALE      FAIR      28  16  59 N17G26    30.29R WCI  16
HOWELL         FAIR      24   9  54 N15G22    30.32R WCI  11

CITY           SKY/WX    TMP DP  RH WIND       PRES   REMARKS
JACKSON        FAIR      25  13  60 N15G22    30.33R WCI  13
LAMBERTVILLE   FAIR      31  12  46 N14G22    30.29R WCI  21
LANSING        FAIR      23   8  52 MISG      30.37R
LAPEER         FAIR      24   9  54 N15G23    30.32R WCI  11
MASON          FAIR      24  12  60 N16G25    30.34R WCI  10
MONROE         FAIR      30  17  59 N12G18    30.28R WCI  20
MT. CLEMENS    MOCLDY    26  12  55 N23G31    30.28R WCI  11
PONTIAC        FAIR      24 N/A N/A N21G29    30.28R WCI   9
PORT HOPE        N/A     25  15  66 NW22G39   30.30R WCI  10
PORT HURON     CLOUDY    27   9  46 N20G30    30.29R WCI  13
TRI CITIES     FAIR      22  10  60 NW18      30.38R WCI   7
MIDLAND        FAIR      23   8  52 NW14G21   30.38R WCI  11
TROY           FAIR      27  10  48 NW15G22   30.32R WCI  15
SAGINAW HB     FAIR      23   9  54 N18G24    30.37R WCI   9
$$
MIZ043>046-050>051-056>058-064>065-071>073-077>080-220600-
SOUTHWEST LOWER MICHIGAN

CITY           SKY/WX    TMP DP  RH WIND       PRES   REMARKS
BATTLE CREEK   FAIR      26   9  48 N18G24    30.35R WCI  13
BENTON HARBOR  FAIR      30  15  53 N10G18    30.39R WCI  21
BIG RAPIDS     FAIR      21   9  59 N10G21    30.39R WCI   9
COLDWATER      FAIR      29  11  47 N14G22    30.33R WCI  18
FREMONT        FAIR      22   6  48 N14G22    30.42R WCI  10
HOLLAND        FAIR      26   9  48 N15G25    30.41R WCI  14
GRAND RAPIDS   FAIR      24   5  44 N9        30.39R WCI  14
IONIA          FAIR      22   6  49 N16G23    30.38R WCI   9
KALAMAZOO      FAIR      27   4  37 N17G26    30.36R WCI  14
LUDINGTON      CLOUDY    24  12  59 N8G18     30.44R WCI  16
MARSHALL       FAIR      26   8  44 N9G18     30.34R WCI  17
MOUNT PLEASANT FAIR      22   8  55 NW14G21   30.39R WCI   9
MUSKEGON       FAIR      25   9  50 N17G25    30.44R WCI  12
SOUTH HAVEN    FAIR      28  12  52 N9G17     30.40R WCI  19
$$
MIZ016>042-220600-
NORTHERN LOWER MICHIGAN

CITY           SKY/WX    TMP DP  RH WIND       PRES   REMARKS
ALPENA         CLOUDY    23  10  57 NW14G26   30.35R WCI  11
BEAVER ISLAND  CLOUDY    22  11  62 NW13G20   30.44R WCI  10
BELLAIRE       CLOUDY    23   8  54 N9G17     30.44R WCI  13
CADILLAC       FLURRIES  20   9  61 N14G25    30.36R WCI   7
CHARLEVOIX     CLOUDY    23  10  57 N16G25    30.46R WCI  10
FRANKFORT      CLOUDY    25  10  54 N10G18    30.46R WCI  15
GAYLORD        FLURRIES  21   8  57 VRB5      30.35R WCI  15
GRAYLING       FLURRIES  20  10  65 NW10G22   30.37R WCI   9
HARBOR SPRINGS CLOUDY    22  10  61 NW10G16   30.41S WCI  11
HOUGHTON LAKE  CLOUDY    20   7  57 N14G20    30.36R WCI   7
MANISTEE       FLURRIES  24  11  57 N14G25    30.45R WCI  12
OSCODA         FAIR      22   7  53 NW13      30.35R WCI  10
PELLSTON       CLOUDY    22   4  46 N21G28    30.41R WCI   6
ROGERS CITY    FAIR      24   6  46 NW18G28   30.38R WCI  10
TRAVERSE CITY  CLOUDY    24   8  50 N14G26    30.43R WCI  12
$$
MIZ007>008-015-220600-
EASTERN UPPER MICHIGAN

CITY           SKY/WX    TMP DP  RH WIND       PRES   REMARKS
KINROSS        FAIR      17   2  51 N14G20    30.40R WCI   3
MACKINAC ISLAN CLOUDY    21   7  56 N17G31    30.40R WCI   6
NEWBERRY       CLOUDY    19   4  52 N14G23    30.42R WCI   6
S. S. MARIE    FAIR      18  -2  41 N10G20    30.40R WCI   6
MUNISING         N/A     21   8  57 N20       30.48R WCI   6
$$
MIZ004>006-011>014-085-220600-
CENTRAL UPPER MICHIGAN

CITY           SKY/WX    TMP DP  RH WIND       PRES   REMARKS
MANISTIQUE     MOCLDY    19   7  58 N15G22    30.45R WCI   5
ESCANABA       FAIR      19   6  57 NW7       30.49R WCI  10
MENOMINEE      FAIR      21   4  47 N5        30.52R WCI  15
SAWYER-GWINN   FLURRIES  20  10  65 N21G28    30.45R WCI   4
$$
MIZ001>003-009>011-084-220600-
WESTERN UPPER MICHIGAN

CITY           SKY/WX    TMP DP  RH WIND       PRES   REMARKS
IRON MOUNTAIN  FAIR      13   3  64 NW5       30.46R WCI   5
HOUGHTON       FAIR      19   2  47 N10       30.49R WCI   7
COPPER HARBOR    N/A     21  10  62 NE17G28   30.52R WCI   7
IRONWOOD       FAIR      21   6  52 N5        30.50S WCI  15
$$

ABBREVIATIONS USED IN REMARKS
   TC - TEMPERATURE IN CELSIUS
  WCI - WIND CHILL INDEX
   HX - HEAT INDEX
  VSB - VISIBILITY





USA.gov is the U.S. government's official web portal to all federal, state and local government web resources and services.